#timestamp,LO_Frequency,Hit,StdDev 
1519725615.7,286046999.7,N
1519725635.5,286046999.7,N
1519725655.4,286047001.9,N
1519725675.2,286047002.6,N
1519725695.0,286047002.0,N
1519725695.9,286047002.0,N
1519725715.8,286047002.0,N
1519725735.6,286047004.4,Y
1519725755.5,286047002.8,P
1519725775.3,286047000.7,N
1519725795.1,286046998.2,N
1519725815.9,286046999.0,N
1519725835.7,286046999.0,N
1519725855.5,286046998.8,N
1519725875.4,286046998.7,N
1519725895.2,286046998.5,N
1519725915.1,286046998.1,N
1519725916.0,286046998.1,N
1519725935.8,286046998.1,N
1519725955.6,286046998.8,N
1519725975.5,286046999.6,N
1519725995.3,286046998.3,N
1519726015.1,286047000.5,N
1519726035.9,286047001.1,N
1519726055.7,286046998.2,N
1519726075.6,286046998.8,N
1519726095.4,286046998.3,N
1519726115.2,286046999.0,N
1519726135.1,286046998.1,N
1519726136.0,286046998.1,N
1519726155.8,286046998.8,N
1519726175.7,286046999.5,N
1519726195.5,286046996.5,Y
1519726215.4,286046998.6,P
1519726235.2,286047001.2,P
1519726255.0,286047000.9,N
1519726255.9,286047000.9,N
1519726275.8,286047001.0,N
1519726295.6,286047001.2,N
1519726315.4,286047000.7,N
1519726335.3,286047001.1,N
1519726355.1,286047000.2,N
1519726375.9,286047002.8,Y
1519726395.7,286046999.8,P
1519726415.5,286047000.0,N
1519726435.4,286047002.8,P
1519726455.2,286046999.9,N
1519726475.1,286047000.5,N
1519726476.0,286047000.5,N
1519726495.8,286047001.1,N
1519726515.6,286047001.0,N
1519726535.5,286046998.2,N
1519726555.3,286047000.9,N
1519726575.1,286046998.3,N
1519726595.9,286047001.1,N
1519726615.7,286047001.2,N
1519726635.6,286047000.6,N
1519726655.4,286046999.7,N
1519726675.2,286047000.2,N
1519726695.1,286047000.6,N
1519726696.0,286047000.6,N
1519726715.8,286047000.6,N
1519726735.6,286047000.7,N
1519726755.5,286046998.3,N
1519726775.3,286047001.2,N
1519726795.2,286047000.2,N
1519726815.9,286047002.1,N
1519726835.7,286047002.5,N
1519726855.6,286047002.6,N
1519726875.4,286047000.2,N
1519726895.2,286047002.0,N
1519726915.1,286047001.6,N
1519726916.0,286047001.6,N
1519726935.8,286047002.8,N
1519726955.7,286047001.4,N
1519726975.5,286047002.1,N
1519726995.3,286047001.6,N
1519727015.2,286047002.1,N
1519727035.0,286047002.5,N
1519727035.9,286047002.5,N
1519727055.8,286047001.8,N
1519727075.6,286047003.9,Y
1519727095.4,286047002.5,P
1519727115.3,286046999.8,N
1519727135.1,286047000.0,N
1519727155.8,286046999.8,N
1519727175.7,286047002.0,N
1519727195.5,286047003.5,Y
1519727215.4,286047002.1,P
1519727235.2,286047002.2,P
1519727255.0,286047000.1,N
1519727255.9,286047000.1,N
1519727275.8,286047001.2,N
1519727295.6,286046998.5,N
1519727315.5,286046998.2,N
1519727335.3,286047000.4,N
1519727355.1,286047000.6,N
1519727375.9,286047000.2,N
1519727395.7,286047001.0,N
1519727415.6,286046998.2,N
1519727435.4,286047001.2,N
1519727455.2,286046998.6,N
1519727475.1,286046998.6,N
1519727476.0,286046998.6,N
1519727495.8,286047000.5,N
1519727515.7,286047000.1,N
1519727535.5,286047000.6,N
1519727555.3,286047002.5,N
1519727575.2,286047003.9,N
1519727595.0,286047001.4,N
1519727595.9,286047001.4,N
1519727615.8,286047001.3,N
1519727635.6,286047002.3,N
1519727655.4,286047002.4,N
1519727675.3,286047002.2,N
1519727695.1,286047001.4,N
1519727715.8,286047004.3,N
1519727735.7,286047003.7,N
1519727755.5,286047003.1,N
1519727775.4,286047003.7,N
1519727795.2,286047004.3,N
1519727815.0,286047002.7,N
1519727815.9,286047002.7,N
1519727835.8,286047002.1,N
1519727855.6,286047001.8,N
1519727875.5,286047001.3,N
1519727895.3,286047001.6,N
1519727915.1,286047002.0,N
1519727935.9,286047002.3,N
1519727955.7,286047000.6,N
1519727975.5,286046998.6,N
1519727995.4,286047001.0,N
1519728015.2,286046998.1,N
1519728035.1,286047001.2,N
1519728036.0,286047001.2,N
1519728055.8,286047000.9,N
1519728075.6,286047000.3,N
1519728095.5,286047000.3,N
1519728115.3,286047000.4,N
1519728135.2,286047000.8,N
1519728155.0,286046999.9,N
1519728155.9,286046999.9,N
1519728175.8,286047000.2,N
1519728195.6,286047002.3,N
1519728215.4,286047002.6,N
1519728235.3,286047002.1,N
1519728255.1,286047001.5,N
1519728275.9,286047002.5,N
1519728295.7,286047000.5,N
1519728315.5,286047001.2,N
1519728335.4,286047000.7,N
1519728355.2,286046998.6,N
1519728375.0,286046998.8,N
1519728375.9,286046998.8,N
1519728395.8,286046998.8,N
1519728415.6,286046999.1,N
1519728435.5,286046999.0,N
1519728455.3,286046998.2,N
1519728475.1,286047000.0,N
1519728495.9,286047000.5,N
1519728515.7,286046999.8,N
1519728535.6,286047000.1,N
1519728555.4,286047000.0,N
1519728575.2,286047002.7,N
1519728595.1,286047002.0,N
1519728596.0,286047002.0,N
1519728615.8,286047001.9,N
1519728635.7,286047002.8,N
1519728655.5,286047002.6,N
1519728675.3,286047002.6,N
1519728695.2,286047002.1,N
1519728715.0,286047002.3,N
1519728715.9,286047002.3,N
1519728735.8,286047002.3,N
1519728755.6,286047002.2,N
1519728775.4,286047002.7,N
1519728795.3,286047000.6,N
1519728815.1,286046999.8,N
1519728835.9,286046999.9,N
1519728855.7,286047000.7,N
1519728875.5,286047000.6,N
1519728895.4,286046998.3,N
1519728915.2,286046998.9,N
1519728935.0,286046998.3,N
1519728935.9,286046998.3,N
1519728955.8,286047000.7,N
1519728975.6,286047000.6,N
1519728995.5,286047001.0,N
1519729015.3,286047001.1,N
1519729035.1,286047000.9,N
1519729055.9,286047002.6,N
1519729075.7,286047003.8,N
1519729095.6,286047004.3,N
1519729115.4,286047002.5,N
1519729135.2,286047000.0,N
1519729155.1,286047000.2,N
1519729156.0,286047000.2,N
1519729175.8,286047000.0,N
1519729195.7,286047000.9,N
